FW0668 Weather Reports


time (UTC)temp
F
wind
direction
speed
knots
gust
knots
rain 1hr
in
rain 24hr
in
rain mn
in
humidity
%
barometer
mb
20260906113503 68 35 0.9 0.0 0.00 0.00 0.00 97 1017.6
20260906113003 68 36 0.9 1.7 0.00 0.00 0.00 97 1017.6
20260906112503 68 33 0.9 3.5 0.00 0.00 0.00 96 1017.6
20260906112003 68 19 0.9 5.2 0.00 0.00 0.00 96 1017.2
20260906111503 68 30 0.0 1.7 0.00 0.00 0.00 96 1017.2
20260906111003 68 38 0.9 1.7 0.00 0.00 0.00 97 1017.2
20260906110503 68 28 0.9 2.6 0.00 0.00 0.00 97 1017.2
20260906110003 68 28 0.9 3.5 0.00 0.00 0.00 97 1016.9
20260906105503 68 44 0.9 2.6 0.00 0.00 0.00 97 1016.9
20260906105003 68 67 0.9 1.7 0.00 0.00 0.00 97 1016.6
20260906104503 69 14 0.0 5.2 0.00 0.00 0.00 100 1016.9
20260906104003 69 3 0.0 2.6 0.00 0.00 0.00 100 1016.6
20260906103003 69 29 0.9 3.5 0.00 0.00 0.00 100 1016.6
20260906102524 69 19 0.0 0.9 0.00 0.00 0.00 100 1016.6
20260906102003 69 3 1.7 6.1 0.00 0.00 0.00 100 1016.9
20260906101503 70 37 0.9 0.9 0.00 0.00 0.00 100 1016.9
20260906101003 70 59 0.9 3.5 0.00 0.00 0.00 100 1016.6
20260906100503 70 44 0.9 3.5 0.00 0.00 0.00 100 1016.6
20260906100003 70 59 1.7 3.5 0.00 0.00 0.00 100 1016.9
20260906095503 70 47 0.9 1.7 0.00 0.00 0.00 100 1016.6
20260906095003 70 14 0.9 1.7 0.00 0.00 0.00 100 1016.6
20260906094524 70 29 1.7 3.5 0.00 0.00 0.00 100 1016.6
20260906094024 70 9 0.9 5.2 0.00 0.00 0.00 100 1016.6
20260906093524 70 16 1.7 6.1 0.00 0.00 0.00 100 1016.6
20260906093003 70 14 0.9 5.2 0.00 0.00 0.00 100 1016.6
20260906092503 70 16 1.7 5.2 0.00 0.00 0.00 100 1016.6
20260906092024 71 11 1.7 6.1 0.00 0.00 0.00 100 1016.6
20260906091503 71 7 1.7 5.2 0.00 0.00 0.00 100 1016.6
20260906091003 71 15 3.5 5.2 0.00 0.00 0.00 100 1016.6
20260906090524 71 12 3.5 7.0 0.00 0.00 0.00 100 1016.6
20260906090003 71 8 2.6 3.5 0.00 0.00 0.00 100 1016.6
20260906085503 71 15 3.5 7.0 0.00 0.00 0.00 100 1016.6
20260906085024 71 3 4.3 7.0 0.00 0.00 0.00 100 1016.6
20260906084503 71 19 1.7 6.1 0.00 0.00 0.00 100 1016.6
20260906084003 71 9 4.3 8.7 0.00 0.00 0.00 100 1016.6
20260906083503 71 17 2.6 5.2 0.00 0.00 0.00 100 1016.6
20260906083003 71 24 1.7 5.2 0.00 0.00 0.00 100 1016.6
20260906082524 71 15 1.7 2.6 0.00 0.00 0.00 100 1016.6
20260906082003 71 14 1.7 5.2 0.00 0.00 0.00 100 1016.6
20260906081503 71 10 2.6 3.5 0.00 0.00 0.00 100 1016.6
20260906081003 71 6 1.7 7.0 0.00 0.00 0.00 100 1016.2
20260906080503 71 20 1.7 2.6 0.00 0.00 0.00 100 1016.2
20260906075503 71 31 1.7 1.7 0.00 0.00 0.00 97 1016.2
20260906075003 71 10 2.6 5.2 0.00 0.00 0.00 97 1016.2
20260906074503 71 44 1.7 5.2 0.00 0.00 0.00 97 1015.9
20260906074003 71 18 1.7 3.5 0.00 0.00 0.00 97 1016.2
20260906073503 71 9 1.7 3.5 0.00 0.00 0.00 97 1016.6
20260906073024 71 2 2.6 8.7 0.00 0.00 0.00 97 1016.2
20260906072503 71 13 1.7 2.6 0.00 0.00 0.00 97 1016.2
20260906072003 71 17 2.6 5.2 0.00 0.00 0.00 97 1016.2
20260906071503 71 14 3.5 8.7 0.00 0.00 0.00 97 1016.6
20260906071003 71 10 1.7 7.0 0.00 0.00 0.00 97 1016.6
20260906070524 71 6 1.7 2.6 0.00 0.00 0.00 97 1016.6
20260906070003 71 18 2.6 5.2 0.00 0.00 0.00 97 1016.6
20260906065503 71 12 3.5 5.2 0.00 0.00 0.00 97 1016.6
20260906065003 71 14 1.7 5.2 0.00 0.00 0.00 96 1016.6
20260906064503 71 16 3.5 7.8 0.00 0.00 0.00 97 1016.6
20260906064003 71 18 3.5 7.8 0.00 0.00 0.00 97 1016.9
20260906063524 71 3 2.6 5.2 0.00 0.00 0.00 97 1016.6
20260906063003 71 13 3.5 8.7 0.00 0.00 0.00 97 1016.6
20260906062503 71 8 2.6 3.5 0.00 0.00 0.00 97 1016.9
20260906062024 71 12 4.3 6.1 0.00 0.00 0.00 97 1016.6
20260906061503 71 22 3.5 7.8 0.00 0.00 0.00 97 1016.6
20260906061003 71 8 2.6 6.1 0.00 0.00 0.00 97 1016.6
20260906060503 71 15 3.5 6.1 0.00 0.00 0.00 97 1016.6
20260906060003 71 24 2.6 7.8 0.00 0.00 0.00 97 1016.6
20260906055503 71 14 1.7 5.2 0.00 0.00 0.00 97 1016.6
20260906055003 71 22 1.7 2.6 0.00 0.00 0.00 97 1016.6
20260906054503 71 17 2.6 5.2 0.00 0.00 0.00 97 1016.6
20260906054003 71 17 1.7 2.6 0.00 0.00 0.00 97 1016.2
20260906053524 71 8 2.6 6.1 0.00 0.00 0.00 97 1016.2
20260906053003 71 14 3.5 8.7 0.00 0.00 0.00 97 1016.6
20260906052503 70 10 0.9 1.7 0.00 0.00 0.00 97 1016.2
20260906052003 70 14 1.7 3.5 0.00 0.00 0.00 97 1016.2
20260906051503 70 6 1.7 7.8 0.00 0.00 0.00 97 1016.2
20260906051024 70 12 2.6 3.5 0.00 0.00 0.00 97 1016.2
20260906050503 70 22 1.7 3.5 0.00 0.00 0.00 97 1016.2
20260906050003 70 27 0.9 2.6 0.00 0.00 0.00 97 1016.2
20260906045503 70 12 3.5 5.2 0.00 0.00 0.00 97 1016.2
20260906045003 70 25 0.9 3.5 0.00 0.00 0.00 97 1016.2
20260906044503 70 30 1.7 1.7 0.00 0.00 0.00 96 1016.2
20260906043503 71 32 1.7 2.6 0.00 0.00 0.00 96 1015.9
20260906043003 71 17 2.6 7.0 0.00 0.00 0.00 96 1015.9
20260906042503 71 14 1.7 2.6 0.00 0.00 0.00 96 1016.2
20260906042003 71 15 1.7 5.2 0.00 0.00 0.00 95 1016.2
20260906041503 71 29 1.7 3.5 0.00 0.00 0.00 95 1016.2
20260906041003 71 1 1.7 6.1 0.00 0.00 0.00 95 1016.2
20260906040503 71 19 2.6 5.2 0.00 0.00 0.00 95 1016.2
20260906040003 71 24 1.7 7.8 0.00 0.00 0.00 95 1015.9
20260906035503 71 26 2.6 5.2 0.00 0.00 0.00 95 1016.2
20260906035003 72 18 1.7 5.2 0.00 0.00 0.00 94 1016.2
20260906034503 72 29 2.6 7.8 0.00 0.00 0.00 94 1016.2
20260906034003 72 24 1.7 7.0 0.00 0.00 0.00 94 1016.2
20260906033503 72 12 2.6 3.5 0.00 0.00 0.00 94 1016.2
20260906033024 72 19 1.7 3.5 0.00 0.00 0.00 94 1016.2
20260906031503 72 27 2.6 5.2 0.00 0.00 0.00 93 1015.9
20260906031003 72 16 1.7 5.2 0.00 0.00 0.00 93 1015.9
20260906030503 73 8 1.7 6.1 0.00 0.00 0.00 92 1015.5
20260906030003 73 28 0.9 5.2 0.00 0.00 0.00 92 1015.5
20260906025503 73 18 2.6 6.1 0.00 0.00 0.00 91 1015.5
20260906025003 73 20 3.5 8.7 0.00 0.00 0.00 91 1015.5
20260906024524 74 26 1.7 3.5 0.00 0.00 0.00 91 1015.9
20260906024003 74 32 1.7 5.2 0.00 0.00 0.00 91 1015.5
20260906023503 74 24 2.6 9.6 0.00 0.00 0.00 90 1015.9
20260906023003 74 27 1.7 5.2 0.00 0.00 0.00 90 1015.5
20260906022503 75 23 2.6 7.0 0.00 0.00 0.00 90 1015.5
20260906022003 75 27 1.7 7.0 0.00 0.00 0.00 90 1015.5
20260906021503 75 28 2.6 6.1 0.00 0.00 0.00 89 1015.5
20260906021003 75 20 0.9 2.6 0.00 0.00 0.00 89 1015.5
20260906020503 76 18 3.5 5.2 0.00 0.00 0.00 89 1015.5
20260906020003 76 21 3.5 6.1 0.00 0.00 0.00 88 1015.2
20260906015503 76 20 2.6 5.2 0.00 0.00 0.00 88 1015.2
20260906015003 76 19 2.6 6.1 0.00 0.00 0.00 88 1015.2
20260906014503 77 5 5.2 7.0 0.00 0.00 0.00 87 1015.2
20260906014003 77 17 4.3 7.8 0.00 0.00 0.00 86 1015.2
20260906013524 77 11 4.3 9.6 0.00 0.00 0.00 86 1014.8
20260906013003 78 358 6.1 13.0 0.00 0.00 0.00 85 1014.8
20260906012524 78 10 6.1 8.7 0.00 0.00 0.00 85 1014.8
20260906012003 79 10 7.0 14.8 0.00 0.00 0.00 84 1014.8
20260906011503 79 358 5.2 11.3 0.00 0.00 0.00 83 1014.8
20260906011003 79 19 2.6 5.2 0.00 0.00 0.00 82 1014.8
20260906010524 80 8 3.5 7.8 0.00 0.00 0.00 81 1014.5
20260906010003 80 22 3.5 6.1 0.00 0.00 0.00 81 1014.5
20260906005503 80 6 4.3 8.7 0.00 0.00 0.00 81 1014.5
20260906005003 80 15 4.3 11.3 0.00 0.00 0.00 82 1014.5
20260906004503 80 16 3.5 7.8 0.00 0.00 0.00 82 1014.1
20260906004003 81 21 2.6 6.1 0.00 0.00 0.00 82 1014.1
20260906003503 81 14 3.5 7.8 0.00 0.00 0.00 82 1014.1
20260906003003 81 8 4.3 7.8 0.00 0.00 0.00 82 1014.5
20260906002503 82 13 5.2 8.7 0.00 0.00 0.00 81 1014.5
20260906002003 82 7 5.2 8.7 0.00 0.00 0.00 80 1014.1
20260906001503 82 6 6.1 9.6 0.00 0.00 0.00 80 1014.1
20260906001003 83 9 5.2 7.8 0.00 0.00 0.00 80 1014.1
20260906000503 83 15 4.3 8.7 0.00 0.00 0.00 80 1014.1
20260906000003 84 25 5.2 8.7 0.00 0.00 0.00 79 1013.8
20260905235503 84 23 3.5 7.8 0.00 0.00 0.00 79 1013.8
20260905235003 85 6 4.3 13.0 0.00 0.00 0.00 78 1014.1
20260905234503 85 12 5.2 8.7 0.00 0.00 0.00 77 1013.8
20260905234003 86 4 5.2 8.7 0.00 0.00 0.00 76 1013.8
20260905233503 87 18 4.3 5.2 0.00 0.00 0.00 75 1013.8
20260905233003 88 6 5.2 9.6 0.00 0.00 0.00 73 1013.8
20260905232503 88 8 6.1 11.3 0.00 0.00 0.00 72 1013.8
20260905232003 88 356 6.1 6.1 0.00 0.00 0.00 73 1013.8
20260905231503 88 349 4.3 7.0 0.00 0.00 0.00 72 1013.8
20260905231024 88 355 7.0 9.6 0.00 0.00 0.00 72 1013.8
20260905230503 89 351 7.8 11.3 0.00 0.00 0.00 71 1013.4
20260905230024 89 3 7.0 7.0 0.00 0.00 0.00 71 1013.4
20260905225503 89 356 7.0 13.0 0.00 0.00 0.00 70 1013.4
20260905225024 89 349 7.8 9.6 0.00 0.00 0.00 70 1013.4
20260905224503 89 343 4.3 9.6 0.00 0.00 0.00 70 1013.4
20260905224003 89 2 7.8 13.9 0.00 0.00 0.00 70 1013.4
20260905223503 89 359 7.0 12.2 0.00 0.00 0.00 70 1013.4
20260905223003 89 345 7.8 12.2 0.00 0.00 0.00 69 1013.1
20260905222503 90 351 7.8 13.9 0.00 0.00 0.00 70 1013.4
20260905222024 90 355 5.2 7.8 0.00 0.00 0.00 71 1013.4
20260905221503 90 352 7.0 13.9 0.00 0.00 0.00 70 1013.4
20260905221003 90 359 7.0 11.3 0.00 0.00 0.00 69 1013.4
20260905220524 90 352 7.0 8.7 0.00 0.00 0.00 69 1013.4
20260905220003 91 336 6.1 12.2 0.00 0.00 0.00 70 1013.1
20260905215524 91 350 6.1 8.7 0.00 0.00 0.00 69 1013.4
20260905215003 91 360 7.8 11.3 0.00 0.00 0.00 69 1013.1
20260905214503 91 349 6.1 7.8 0.00 0.00 0.00 70 1013.4
20260905214003 90 357 4.3 7.0 0.00 0.00 0.00 70 1013.1
20260905213503 90 349 7.0 13.0 0.00 0.00 0.00 71 1013.1
20260905213003 91 357 7.0 11.3 0.00 0.00 0.00 70 1013.1
20260905212503 91 347 7.0 11.3 0.00 0.00 0.00 68 1013.1
20260905212003 91 343 7.0 8.7 0.00 0.00 0.00 69 1013.1
20260905211503 92 17 7.0 12.2 0.00 0.00 0.00 68 1013.1
20260905211003 92 357 5.2 7.8 0.00 0.00 0.00 69 1013.1
20260905210503 92 353 6.1 12.2 0.00 0.00 0.00 68 1013.1
20260905210024 91 1 5.2 7.8 0.00 0.00 0.00 71 1013.4
20260905205503 91 342 5.2 7.8 0.00 0.00 0.00 72 1013.1
20260905205003 91 355 6.1 7.8 0.00 0.00 0.00 70 1013.4
20260905204503 91 354 6.1 8.7 0.00 0.00 0.00 69 1013.4
20260905204003 91 341 5.2 6.1 0.00 0.00 0.00 71 1013.4
20260905203503 91 353 7.0 8.7 0.00 0.00 0.00 71 1013.4
20260905203003 90 342 7.8 13.0 0.00 0.00 0.00 70 1013.4
20260905202503 91 337 6.1 12.2 0.00 0.00 0.00 71 1013.4
20260905202024 91 311 1.7 7.0 0.00 0.00 0.00 68 1013.4
20260905201503 91 331 4.3 8.7 0.00 0.00 0.00 69 1013.4
20260905201024 92 349 4.3 8.7 0.00 0.00 0.00 67 1013.4
20260905200503 92 329 3.5 7.8 0.00 0.00 0.00 66 1013.4
20260905200003 92 336 6.1 11.3 0.00 0.00 0.00 66 1013.8
20260905195503 92 351 7.8 13.9 0.00 0.00 0.00 64 1013.4
20260905195003 93 331 6.1 12.2 0.00 0.00 0.00 64 1013.4
20260905194503 92 336 4.3 6.1 0.00 0.00 0.00 67 1013.4
20260905194024 92 341 5.2 8.7 0.00 0.00 0.00 70 1013.8
20260905193503 92 351 5.2 9.6 0.00 0.00 0.00 67 1013.8
20260905193003 93 344 7.0 12.2 0.00 0.00 0.00 66 1013.8
20260905192503 92 300 1.7 3.5 0.00 0.00 0.00 66 1013.8
20260905192024 92 317 3.5 7.8 0.00 0.00 0.00 64 1013.8
20260905191503 92 334 6.1 11.3 0.00 0.00 0.00 65 1014.1
20260905191003 92 335 4.3 7.8 0.00 0.00 0.00 68 1014.1
20260905190503 91 334 4.3 6.1 0.00 0.00 0.00 69 1014.1
20260905190003 90 323 2.6 5.2 0.00 0.00 0.00 69 1014.1
20260905185524 92 334 6.1 6.1 0.00 0.00 0.00 65 1014.1
20260905185024 92 322 3.5 6.1 0.00 0.00 0.00 64 1014.1
20260905184503 92 320 2.6 6.1 0.00 0.00 0.00 68 1014.1
20260905184024 92 333 4.3 7.0 0.00 0.00 0.00 66 1014.1
20260905183503 91 360 4.3 9.6 0.00 0.00 0.00 68 1014.1
20260905183003 91 351 5.2 7.0 0.00 0.00 0.00 68 1014.5
20260905182503 92 348 6.1 9.6 0.00 0.00 0.00 65 1014.1
20260905182003 91 339 4.3 9.6 0.00 0.00 0.00 69 1014.1
20260905181503 91 358 6.1 9.6 0.00 0.00 0.00 68 1014.5
20260905181003 91 338 6.1 7.8 0.00 0.00 0.00 67 1014.5
20260905180503 92 325 0.9 3.5 0.00 0.00 0.00 66 1014.5
20260905180003 92 323 4.3 8.7 0.00 0.00 0.00 66 1014.5
20260905175503 92 320 5.2 7.8 0.00 0.00 0.00 66 1014.5
20260905175003 92 349 5.2 7.0 0.00 0.00 0.00 65 1014.5
20260905174524 92 318 4.3 6.1 0.00 0.00 0.00 66 1014.5
20260905174003 92 318 1.7 2.6 0.00 0.00 0.00 62 1014.5
20260905173503 92 311 2.6 5.2 0.00 0.00 0.00 66 1014.5
20260905173003 91 320 3.5 7.8 0.00 0.00 0.00 64 1014.5
20260905172503 91 326 1.7 6.1 0.00 0.00 0.00 66 1014.5
20260905172003 92 321 2.6 7.8 0.00 0.00 0.00 64 1014.5
20260905171524 92 314 3.5 8.7 0.00 0.00 0.00 65 1014.8
20260905171003 91 326 2.6 6.1 0.00 0.00 0.00 66 1014.8
20260905170524 90 333 3.5 7.0 0.00 0.00 0.00 67 1014.8
20260905170003 90 344 5.2 7.0 0.00 0.00 0.00 68 1014.8
20260905165503 90 325 3.5 6.1 0.00 0.00 0.00 69 1014.8
20260905165024 91 325 4.3 7.8 0.00 0.00 0.00 67 1014.8
20260905164503 91 299 1.7 7.0 0.00 0.00 0.00 67 1014.8
20260905164024 92 315 3.5 7.8 0.00 0.00 0.00 66 1014.8
20260905163503 91 291 2.6 6.1 0.00 0.00 0.00 70 1014.8
20260905163003 91 324 3.5 2.6 0.00 0.00 0.00 67 1014.8
20260905162503 91 265 1.7 3.5 0.00 0.00 0.00 70 1014.8
20260905162003 90 269 1.7 5.2 0.00 0.00 0.00 73 1014.8
20260905161503 90 272 1.7 1.7 0.00 0.00 0.00 70 1014.8
20260905161003 90 260 2.6 5.2 0.00 0.00 0.00 68 1014.8
20260905160503 90 265 2.6 3.5 0.00 0.00 0.00 69 1014.8
20260905160003 90 263 2.6 1.7 0.00 0.00 0.00 67 1014.8
20260905155503 90 278 2.6 6.1 0.00 0.00 0.00 67 1014.8
20260905155003 90 310 1.7 6.1 0.00 0.00 0.00 65 1014.8
20260905154503 90 318 2.6 5.2 0.00 0.00 0.00 67 1014.8
20260905154003 90 321 2.6 8.7 0.00 0.00 0.00 69 1014.8
20260905153503 90 278 0.0 0.9 0.00 0.00 0.00 72 1014.8
20260905153024 89 263 1.7 5.2 0.00 0.00 0.00 70 1014.8
20260905152524 89 268 4.3 5.2 0.00 0.00 0.00 72 1014.8
20260905152003 89 269 0.9 3.5 0.00 0.00 0.00 73 1014.8
20260905151503 88 264 1.7 5.2 0.00 0.00 0.00 72 1014.8
20260905150503 88 260 1.7 2.6 0.00 0.00 0.00 73 1014.8
20260905150003 88 262 1.7 3.5 0.00 0.00 0.00 73 1014.5
20260905145503 87 269 1.7 5.2 0.00 0.00 0.00 72 1014.5
20260905145003 87 271 1.7 6.1 0.00 0.00 0.00 73 1014.8
20260905144524 87 278 2.6 3.5 0.00 0.00 0.00 75 1014.5
20260905144003 86 269 1.7 2.6 0.00 0.00 0.00 76 1014.5
20260905143503 86 262 1.7 3.5 0.00 0.00 0.00 76 1014.5
20260905143003 86 269 1.7 3.5 0.00 0.00 0.00 78 1014.8
20260905142524 86 258 0.9 1.7 0.00 0.00 0.00 80 1014.8
20260905142003 85 265 0.9 3.5 0.00 0.00 0.00 81 1014.8
20260905141503 84 258 0.9 0.9 0.00 0.00 0.00 82 1014.8
20260905141003 84 270 0.9 2.6 0.00 0.00 0.00 83 1014.8
20260905140524 83 282 0.0 0.0 0.00 0.00 0.00 82 1014.8
20260905140004 83 250 0.9 1.7 0.00 0.00 0.00 83 1014.8
20260905135503 83 268 2.6 3.5 0.00 0.00 0.00 84 1014.8
20260905135003 82 269 1.7 5.2 0.00 0.00 0.00 85 1014.8
20260905134503 82 253 5.2 6.1 0.00 0.00 0.00 85 1014.5
20260905134024 82 257 4.3 5.2 0.00 0.00 0.00 85 1014.8
20260905133503 82 256 3.5 6.1 0.00 0.00 0.00 87 1014.8
20260905133003 81 257 3.5 6.1 0.00 0.00 0.00 89 1014.8
20260905132503 81 254 1.7 3.5 0.00 0.00 0.00 92 1014.8
20260905132024 80 255 1.7 3.5 0.00 0.00 0.00 92 1014.8
20260905131503 80 247 0.9 1.7 0.00 0.00 0.00 92 1014.8
20260905131003 79 237 1.7 1.7 0.00 0.00 0.00 94 1014.8
20260905130503 79 245 1.7 1.7 0.00 0.00 0.00 95 1014.8
20260905130003 78 244 0.9 1.7 0.00 0.00 0.00 95 1014.8
20260905125503 78 229 0.9 1.7 0.00 0.00 0.00 96 1014.8
20260905125003 78 229 0.9 0.9 0.00 0.00 0.00 96 1014.5
20260905124503 77 232 0.0 0.9 0.00 0.00 0.00 96 1014.8
20260905124003 77 220 0.0 0.9 0.00 0.00 0.00 97 1014.8
20260905123503 77 0 0.0 0.0 0.00 0.00 0.00 97 1014.5
20260905123003 76 0 0.0 0.0 0.00 0.00 0.00 97 1014.5
20260905122503 76 0 0.0 0.0 0.00 0.00 0.00 97 1014.8
20260905122003 76 0 0.0 0.0 0.00 0.00 0.00 97 1014.5
20260905121524 76 0 0.0 0.0 0.00 0.00 0.00 100 1014.5
20260905121003 75 0 0.0 0.0 0.00 0.00 0.00 100 1014.5
20260905120503 75 0 0.0 0.0 0.00 0.00 0.00 100 1014.5
20260905120003 75 0 0.0 0.0 0.00 0.00 0.00 100 1014.5
20260905115524 75 0 0.0 0.0 0.00 0.00 0.00 100 1014.1
20260905115003 75 0 0.0 0.0 0.00 0.00 0.00 97 1014.5
20260905114503 75 0 0.0 0.0 0.00 0.00 0.00 97 1014.5
20260905114003 74 227 0.0 0.0 0.00 0.00 0.00 97 1014.5